TimeEDT,TemperatureF,Dew PointF,Humidity,Sea Level PressureIn,VisibilityMPH,Wind Direction,Wind SpeedMPH,Gust SpeedMPH,PrecipitationIn,Events,Conditions,WindDirDegrees,DateUTC
12:53 AM,55.0,53.1,93,29.74,10.0,NE,4.6,-,0.03,Rain,Light Rain,50,2013-06-12 04:53:00
1:53 AM,55.0,53.1,93,29.73,10.0,NNE,6.9,-,0.00,,Overcast,20,2013-06-12 05:53:00
2:53 AM,54.0,52.0,93,29.72,10.0,NE,3.5,-,N/A,,Overcast,50,2013-06-12 06:53:00
3:53 AM,53.1,52.0,96,29.71,10.0,North,5.8,-,0.01,Rain,Light Rain,10,2013-06-12 07:53:00
4:53 AM,53.1,52.0,96,29.71,10.0,NNE,9.2,-,0.00,Rain,Light Rain,20,2013-06-12 08:53:00
5:53 AM,54.0,52.0,93,29.71,10.0,North,10.4,-,0.01,Rain,Light Rain,10,2013-06-12 09:53:00
6:53 AM,54.0,52.0,93,29.72,10.0,North,10.4,-,0.01,Rain,Light Rain,10,2013-06-12 10:53:00
7:40 AM,55.4,53.6,94,29.74,9.0,North,5.8,-,0.00,Rain,Light Rain,360,2013-06-12 11:40:00
7:53 AM,55.0,54.0,96,29.73,5.0,North,9.2,-,0.01,Rain,Light Rain,360,2013-06-12 11:53:00
8:53 AM,55.9,55.0,97,29.73,7.0,North,8.1,-,0.00,Rain,Light Rain,360,2013-06-12 12:53:00
9:32 AM,57.2,55.4,94,29.74,9.0,NNE,4.6,-,0.01,Rain,Light Rain,20,2013-06-12 13:32:00
9:53 AM,57.9,55.0,90,29.74,10.0,NNE,6.9,-,0.01,Rain,Light Rain,20,2013-06-12 13:53:00
10:14 AM,57.2,55.4,94,29.74,10.0,NNE,6.9,-,0.00,,Overcast,20,2013-06-12 14:14:00
10:17 AM,57.2,55.4,94,29.74,10.0,North,8.1,-,0.00,,Overcast,10,2013-06-12 14:17:00
10:37 AM,60.8,55.4,82,29.74,10.0,Variable,6.9,-,0.00,,Mostly Cloudy,0,2013-06-12 14:37:00
10:53 AM,60.1,53.1,78,29.74,10.0,NE,11.5,-,0.00,,Mostly Cloudy,40,2013-06-12 14:53:00
11:53 AM,61.0,50.0,67,29.74,10.0,NNE,10.4,-,N/A,,Mostly Cloudy,30,2013-06-12 15:53:00
12:53 PM,64.9,46.0,50,29.73,10.0,ENE,18.4,26.5,N/A,,Partly Cloudy,60,2013-06-12 16:53:00
1:53 PM,66.0,44.1,45,29.72,10.0,NE,10.4,18.4,N/A,,Clear,40,2013-06-12 17:53:00
2:53 PM,66.0,39.0,37,29.74,10.0,NE,12.7,20.7,N/A,,Clear,50,2013-06-12 18:53:00
3:53 PM,64.9,37.9,37,29.74,10.0,ENE,9.2,18.4,N/A,,Clear,70,2013-06-12 19:53:00
4:53 PM,64.9,36.0,34,29.74,10.0,ENE,9.2,18.4,N/A,,Clear,60,2013-06-12 20:53:00
5:53 PM,63.0,39.0,41,29.74,10.0,ENE,10.4,-,N/A,,Clear,60,2013-06-12 21:53:00
6:53 PM,62.1,37.9,41,29.75,10.0,ENE,6.9,-,N/A,,Clear,60,2013-06-12 22:53:00
7:53 PM,61.0,35.1,38,29.77,10.0,ENE,9.2,-,N/A,,Clear,70,2013-06-12 23:53:00
8:53 PM,59.0,34.0,39,29.78,10.0,ENE,11.5,-,N/A,,Clear,60,2013-06-13 00:53:00
9:53 PM,57.0,30.9,37,29.79,10.0,ENE,11.5,17.3,N/A,,Clear,60,2013-06-13 01:53:00
10:53 PM,55.9,30.9,39,29.79,10.0,NE,9.2,-,N/A,,Clear,50,2013-06-13 02:53:00
11:53 PM,54.0,30.0,40,29.78,10.0,ENE,6.9,-,N/A,,Clear,60,2013-06-13 03:53:00